Year,Month,Day,Hour,Minute,Value (Times are PST for temperature in C)
2011,05,26,00,00,10.90
2011,05,26,00,01,10.90
2011,05,26,00,02,10.90
2011,05,26,00,03,10.90
2011,05,26,00,04,10.90
2011,05,26,00,05,10.90
2011,05,26,00,06,10.90
2011,05,26,00,07,10.90
2011,05,26,00,08,10.90
2011,05,26,00,09,10.90
2011,05,26,00,10,10.90
2011,05,26,00,11,10.90
2011,05,26,00,12,10.90
2011,05,26,00,13,10.90
2011,05,26,00,14,10.90
2011,05,26,00,15,10.90
2011,05,26,00,16,10.90
2011,05,26,00,17,10.90
2011,05,26,00,18,10.80
2011,05,26,00,19,10.80
2011,05,26,00,20,10.80
2011,05,26,00,21,10.80
2011,05,26,00,22,10.80
2011,05,26,00,23,10.80
2011,05,26,00,24,10.80
2011,05,26,00,25,10.80
2011,05,26,00,26,10.80
2011,05,26,00,27,10.80
2011,05,26,00,28,10.80
2011,05,26,00,29,10.80
2011,05,26,00,30,10.80
2011,05,26,00,31,10.80
2011,05,26,00,32,10.80
2011,05,26,00,33,10.80
2011,05,26,00,34,10.80
2011,05,26,00,35,10.80
2011,05,26,00,36,10.80
2011,05,26,00,37,10.80
2011,05,26,00,38,10.80
2011,05,26,00,39,10.80
2011,05,26,00,40,10.80
2011,05,26,00,41,10.70
2011,05,26,00,42,10.70
2011,05,26,00,43,10.70
2011,05,26,00,44,10.70
2011,05,26,00,45,10.70
2011,05,26,00,46,10.70
2011,05,26,00,47,10.70
2011,05,26,00,48,10.70
2011,05,26,00,49,10.70
2011,05,26,00,50,10.70
2011,05,26,00,51,10.70
2011,05,26,00,52,10.70
2011,05,26,00,53,10.70
2011,05,26,00,54,10.70
2011,05,26,00,55,10.80
2011,05,26,00,56,10.80
2011,05,26,00,57,10.80
2011,05,26,00,58,10.80
2011,05,26,00,59,10.80
2011,05,26,01,00,10.80
2011,05,26,01,01,10.80
2011,05,26,01,02,10.80
2011,05,26,01,03,10.80
2011,05,26,01,04,10.80
2011,05,26,01,05,10.80
2011,05,26,01,06,10.80
2011,05,26,01,07,10.80
2011,05,26,01,08,10.80
2011,05,26,01,09,10.80
2011,05,26,01,10,10.80
2011,05,26,01,11,10.80
2011,05,26,01,12,10.80
2011,05,26,01,13,10.80
2011,05,26,01,14,10.80
2011,05,26,01,15,10.80
2011,05,26,01,16,10.80
2011,05,26,01,17,10.80
2011,05,26,01,18,10.80
2011,05,26,01,19,10.80
2011,05,26,01,20,10.80
2011,05,26,01,21,10.70
2011,05,26,01,22,10.70
2011,05,26,01,23,10.70
2011,05,26,01,24,10.70
2011,05,26,01,25,10.70
2011,05,26,01,26,10.70
2011,05,26,01,27,10.70
2011,05,26,01,28,10.70
2011,05,26,01,29,10.70
2011,05,26,01,30,10.70
2011,05,26,01,31,10.70
2011,05,26,01,32,10.70
2011,05,26,01,33,10.60
2011,05,26,01,34,10.60
2011,05,26,01,35,10.60
2011,05,26,01,36,10.60
2011,05,26,01,37,10.60
2011,05,26,01,38,10.60
2011,05,26,01,39,10.60
2011,05,26,01,40,10.60
2011,05,26,01,41,10.60
2011,05,26,01,42,10.60
2011,05,26,01,43,10.60
2011,05,26,01,44,10.60
2011,05,26,01,45,10.60
2011,05,26,01,46,10.60
2011,05,26,01,47,10.60
2011,05,26,01,48,10.60
2011,05,26,01,49,10.50
2011,05,26,01,50,10.50
2011,05,26,01,51,10.50
2011,05,26,01,52,10.50
2011,05,26,01,53,10.50
2011,05,26,01,54,10.40
2011,05,26,01,55,10.40
2011,05,26,01,56,10.40
2011,05,26,01,57,10.40
2011,05,26,01,58,10.40
2011,05,26,01,59,10.40
2011,05,26,02,00,10.30
2011,05,26,02,01,10.30
2011,05,26,02,02,10.30
2011,05,26,02,03,10.30
2011,05,26,02,04,10.30
2011,05,26,02,05,10.30
2011,05,26,02,06,10.30
2011,05,26,02,07,10.30
2011,05,26,02,08,10.30
2011,05,26,02,09,10.20
2011,05,26,02,10,10.20
2011,05,26,02,11,10.20
2011,05,26,02,12,10.20
2011,05,26,02,13,10.20
2011,05,26,02,14,10.20
2011,05,26,02,15,10.10
2011,05,26,02,16,10.10
2011,05,26,02,17,10.10
2011,05,26,02,18,10.10
2011,05,26,02,19,10.10
2011,05,26,02,20,10.10
2011,05,26,02,21,10.10
2011,05,26,02,22,10.10
2011,05,26,02,23,10.10
2011,05,26,02,24,10.10
2011,05,26,02,25,10.10
2011,05,26,02,26,10.00
2011,05,26,02,27,10.00
2011,05,26,02,28,10.00
2011,05,26,02,29,10.00
2011,05,26,02,30,10.00
2011,05,26,02,31,10.00
2011,05,26,02,32,10.00
2011,05,26,02,33,10.00
2011,05,26,02,34,10.00
2011,05,26,02,35,10.00
2011,05,26,02,36,10.00
2011,05,26,02,37,10.00
2011,05,26,02,38,9.90
2011,05,26,02,39,9.90
2011,05,26,02,40,9.90
2011,05,26,02,41,10.00
2011,05,26,02,42,10.00
2011,05,26,02,43,10.00
2011,05,26,02,44,10.00
2011,05,26,02,45,9.90
2011,05,26,02,46,9.90
2011,05,26,02,47,9.90
2011,05,26,02,48,9.90
2011,05,26,02,49,9.90
2011,05,26,02,50,9.90
2011,05,26,02,51,9.80
2011,05,26,02,52,9.80
2011,05,26,02,53,9.70
2011,05,26,02,54,9.70
2011,05,26,02,55,9.60
2011,05,26,02,56,9.60
2011,05,26,02,57,9.60
2011,05,26,02,58,9.60
2011,05,26,02,59,9.60
2011,05,26,03,00,9.50
2011,05,26,03,01,9.50
2011,05,26,03,02,9.50
2011,05,26,03,03,9.50
2011,05,26,03,04,9.50
2011,05,26,03,05,9.50
2011,05,26,03,06,9.40
2011,05,26,03,07,9.40
2011,05,26,03,08,9.40
2011,05,26,03,09,9.40
2011,05,26,03,10,9.40
2011,05,26,03,11,9.40
2011,05,26,03,12,9.40
2011,05,26,03,13,9.40
2011,05,26,03,14,9.40
2011,05,26,03,15,9.40
2011,05,26,03,16,9.40
2011,05,26,03,17,9.40
2011,05,26,03,18,9.40
2011,05,26,03,19,9.40
2011,05,26,03,20,9.40
2011,05,26,03,21,9.40
2011,05,26,03,22,9.40
2011,05,26,03,23,9.40
2011,05,26,03,24,9.40
2011,05,26,03,25,9.40
2011,05,26,03,26,9.40
2011,05,26,03,27,9.30
2011,05,26,03,28,9.30
2011,05,26,03,29,9.30
2011,05,26,03,30,9.30
2011,05,26,03,31,9.30
2011,05,26,03,32,9.20
2011,05,26,03,33,9.20
2011,05,26,03,34,9.20
2011,05,26,03,35,9.20
2011,05,26,03,36,9.10
2011,05,26,03,37,9.10
2011,05,26,03,38,9.10
2011,05,26,03,39,9.10
2011,05,26,03,40,9.10
2011,05,26,03,41,9.00
2011,05,26,03,42,9.00
2011,05,26,03,43,9.00
2011,05,26,03,44,8.90
2011,05,26,03,45,8.90
2011,05,26,03,46,8.90
2011,05,26,03,47,8.90
2011,05,26,03,48,8.90
2011,05,26,03,49,8.80
2011,05,26,03,50,8.80
2011,05,26,03,51,8.80
2011,05,26,03,52,8.80
2011,05,26,03,53,8.80
2011,05,26,03,54,8.70
2011,05,26,03,55,8.70
2011,05,26,03,56,8.70
2011,05,26,03,57,8.70
2011,05,26,03,58,8.70
2011,05,26,03,59,8.60
2011,05,26,04,00,8.60
2011,05,26,04,01,8.60
2011,05,26,04,02,8.60
2011,05,26,04,03,8.60
2011,05,26,04,04,8.60
2011,05,26,04,05,8.60
2011,05,26,04,06,8.60
2011,05,26,04,07,8.60
2011,05,26,04,08,8.60
2011,05,26,04,09,8.60
2011,05,26,04,10,8.60
2011,05,26,04,11,8.60
2011,05,26,04,12,8.60
2011,05,26,04,13,8.50
2011,05,26,04,14,8.50
2011,05,26,04,15,8.50
2011,05,26,04,16,8.40
2011,05,26,04,17,8.40
2011,05,26,04,18,8.40
2011,05,26,04,19,8.40
2011,05,26,04,20,8.40
2011,05,26,04,21,8.40
2011,05,26,04,22,8.40
2011,05,26,04,23,8.40
2011,05,26,04,24,8.30
2011,05,26,04,25,8.30
2011,05,26,04,26,8.30
2011,05,26,04,27,8.30
2011,05,26,04,28,8.30
2011,05,26,04,29,8.30
2011,05,26,04,30,8.30
2011,05,26,04,31,8.30
2011,05,26,04,32,8.30
2011,05,26,04,33,8.20
2011,05,26,04,34,8.20
2011,05,26,04,35,8.20
2011,05,26,04,36,8.20
2011,05,26,04,37,8.20
2011,05,26,04,38,8.20
2011,05,26,04,39,8.20
2011,05,26,04,40,8.20
2011,05,26,04,41,8.10
2011,05,26,04,42,8.10
2011,05,26,04,43,8.10
2011,05,26,04,44,8.10
2011,05,26,04,45,8.10
2011,05,26,04,46,8.10
2011,05,26,04,47,8.00
2011,05,26,04,48,8.00
2011,05,26,04,49,8.00
2011,05,26,04,50,8.00
2011,05,26,04,51,8.00
2011,05,26,04,52,7.90
2011,05,26,04,53,7.90
2011,05,26,04,54,7.90
2011,05,26,04,55,7.90
2011,05,26,04,56,7.90
2011,05,26,04,57,7.90
2011,05,26,04,58,7.90
2011,05,26,04,59,7.90
2011,05,26,05,00,7.90
2011,05,26,05,01,7.90
2011,05,26,05,02,7.90
2011,05,26,05,03,7.90
2011,05,26,05,04,7.80
2011,05,26,05,05,7.80
2011,05,26,05,06,7.80
2011,05,26,05,07,7.80
2011,05,26,05,08,7.80
2011,05,26,05,09,7.80
2011,05,26,05,10,7.80
2011,05,26,05,11,7.70
2011,05,26,05,12,7.70
2011,05,26,05,13,7.70
2011,05,26,05,14,7.70
2011,05,26,05,15,7.70
2011,05,26,05,16,7.70
2011,05,26,05,17,7.70
2011,05,26,05,18,7.70
2011,05,26,05,19,7.70
2011,05,26,05,20,7.70
2011,05,26,05,21,7.70
2011,05,26,05,22,7.70
2011,05,26,05,23,7.70
2011,05,26,05,24,7.70
2011,05,26,05,25,7.70
2011,05,26,05,26,7.70
2011,05,26,05,27,7.60
2011,05,26,05,28,7.60
2011,05,26,05,29,7.60
2011,05,26,05,30,7.60
2011,05,26,05,31,7.60
2011,05,26,05,32,7.60
2011,05,26,05,33,7.60
2011,05,26,05,34,7.60
2011,05,26,05,35,7.60
2011,05,26,05,36,7.60
2011,05,26,05,37,7.50
2011,05,26,05,38,7.50
2011,05,26,05,39,7.50
2011,05,26,05,40,7.50
2011,05,26,05,41,7.50
2011,05,26,05,42,7.50
2011,05,26,05,43,7.50
2011,05,26,05,44,7.50
2011,05,26,05,45,7.50
2011,05,26,05,46,7.50
2011,05,26,05,47,7.50
2011,05,26,05,48,7.50
2011,05,26,05,49,7.50
2011,05,26,05,50,7.60
2011,05,26,05,51,7.60
2011,05,26,05,52,7.60
2011,05,26,05,53,7.60
2011,05,26,05,54,7.60
2011,05,26,05,55,7.60
2011,05,26,05,56,7.60
2011,05,26,05,57,7.60
2011,05,26,05,58,7.60
2011,05,26,05,59,7.60
2011,05,26,06,00,7.60
2011,05,26,06,01,7.60
2011,05,26,06,02,7.60
2011,05,26,06,03,7.60
2011,05,26,06,04,7.60
2011,05,26,06,05,7.60
2011,05,26,06,06,7.60
2011,05,26,06,07,7.60
2011,05,26,06,08,7.60
2011,05,26,06,09,7.60
2011,05,26,06,10,7.60
2011,05,26,06,11,7.60
2011,05,26,06,12,7.60
2011,05,26,06,13,7.60
2011,05,26,06,14,7.60
2011,05,26,06,15,7.60
2011,05,26,06,16,7.60
2011,05,26,06,17,7.60
2011,05,26,06,18,7.50
2011,05,26,06,19,7.60
2011,05,26,06,20,7.60
2011,05,26,06,21,7.60
2011,05,26,06,22,7.60
2011,05,26,06,23,7.60
2011,05,26,06,24,7.60
2011,05,26,06,25,7.70
2011,05,26,06,26,7.70
2011,05,26,06,27,7.70
2011,05,26,06,28,7.70
2011,05,26,06,29,7.70
2011,05,26,06,30,7.80
2011,05,26,06,31,7.80
2011,05,26,06,32,7.80
2011,05,26,06,33,7.80
2011,05,26,06,34,7.80
2011,05,26,06,35,7.80
2011,05,26,06,36,7.90
2011,05,26,06,37,7.90
2011,05,26,06,38,7.90
2011,05,26,06,39,7.90
2011,05,26,06,40,7.90
2011,05,26,06,41,8.00
2011,05,26,06,42,8.00
2011,05,26,06,43,8.00
2011,05,26,06,44,8.00
2011,05,26,06,45,8.10
2011,05,26,06,46,8.10
2011,05,26,06,47,8.10
2011,05,26,06,48,8.10
2011,05,26,06,49,8.20
2011,05,26,06,50,8.20
2011,05,26,06,51,8.30
2011,05,26,06,52,8.30
2011,05,26,06,53,8.30
2011,05,26,06,54,8.40
2011,05,26,06,55,8.40
2011,05,26,06,56,8.40
2011,05,26,06,57,8.40
2011,05,26,06,58,8.40
2011,05,26,06,59,8.40
2011,05,26,07,00,8.50
2011,05,26,07,01,8.50
2011,05,26,07,02,8.60
2011,05,26,07,03,8.60
2011,05,26,07,04,8.70
2011,05,26,07,05,8.70
2011,05,26,07,06,8.70
2011,05,26,07,07,8.70
2011,05,26,07,08,8.70
2011,05,26,07,09,8.70
2011,05,26,07,10,8.70
2011,05,26,07,11,8.70
2011,05,26,07,12,8.70
2011,05,26,07,13,8.70
2011,05,26,07,14,8.70
2011,05,26,07,15,8.70
2011,05,26,07,16,8.70
2011,05,26,07,17,8.70
2011,05,26,07,18,8.70
2011,05,26,07,19,8.80
2011,05,26,07,20,8.80
2011,05,26,07,21,8.80
2011,05,26,07,22,8.80
2011,05,26,07,23,8.80
2011,05,26,07,24,8.90
2011,05,26,07,25,8.90
2011,05,26,07,26,8.90
2011,05,26,07,27,8.90
2011,05,26,07,28,8.90
2011,05,26,07,29,8.90
2011,05,26,07,30,8.90
2011,05,26,07,31,8.90
2011,05,26,07,32,9.00
2011,05,26,07,33,9.00
2011,05,26,07,34,9.00
2011,05,26,07,35,9.00
2011,05,26,07,36,9.10
2011,05,26,07,37,9.10
2011,05,26,07,38,9.20
2011,05,26,07,39,9.20
2011,05,26,07,40,9.30
2011,05,26,07,41,9.30
2011,05,26,07,42,9.30
2011,05,26,07,43,9.40
2011,05,26,07,44,9.40
2011,05,26,07,45,9.50
2011,05,26,07,46,9.50
2011,05,26,07,47,9.50
2011,05,26,07,48,9.60
2011,05,26,07,49,9.60
2011,05,26,07,50,9.60
2011,05,26,07,51,9.70
2011,05,26,07,52,9.70
2011,05,26,07,53,9.70
2011,05,26,07,54,9.70
2011,05,26,07,55,9.70
2011,05,26,07,56,9.70
2011,05,26,07,57,9.80
2011,05,26,07,58,9.80
2011,05,26,07,59,9.80
2011,05,26,08,00,9.80
2011,05,26,08,01,9.80
2011,05,26,08,02,9.80
2011,05,26,08,03,9.90
2011,05,26,08,04,9.90
2011,05,26,08,05,9.90
2011,05,26,08,06,9.90
2011,05,26,08,07,9.90
2011,05,26,08,08,9.90
2011,05,26,08,09,10.00
2011,05,26,08,10,10.00
2011,05,26,08,11,10.00
2011,05,26,08,12,10.00
2011,05,26,08,13,10.00
2011,05,26,08,14,10.00
2011,05,26,08,15,10.10
2011,05,26,08,16,10.10
2011,05,26,08,17,10.10
2011,05,26,08,18,10.20
2011,05,26,08,19,10.20
2011,05,26,08,20,10.20
2011,05,26,08,21,10.20
2011,05,26,08,22,10.30
2011,05,26,08,23,10.30
2011,05,26,08,24,10.30
2011,05,26,08,25,10.30
2011,05,26,08,26,10.40
2011,05,26,08,27,10.40
2011,05,26,08,28,10.50
2011,05,26,08,29,10.50
2011,05,26,08,30,10.50
2011,05,26,08,31,10.60
2011,05,26,08,32,10.60
2011,05,26,08,33,10.60
2011,05,26,08,34,10.70
2011,05,26,08,35,10.70
2011,05,26,08,36,10.70
2011,05,26,08,37,10.70
2011,05,26,08,38,10.70
2011,05,26,08,39,10.80
2011,05,26,08,40,10.80
2011,05,26,08,41,10.80
2011,05,26,08,42,10.80
2011,05,26,08,43,10.80
2011,05,26,08,44,10.90
2011,05,26,08,45,10.90
2011,05,26,08,46,10.90
2011,05,26,08,47,11.00
2011,05,26,08,48,11.00
2011,05,26,08,49,11.10
2011,05,26,08,50,11.10
2011,05,26,08,51,11.20
2011,05,26,08,52,11.20
2011,05,26,08,53,11.30
2011,05,26,08,54,11.30
2011,05,26,08,55,11.30
2011,05,26,08,56,11.40
2011,05,26,08,57,11.40
2011,05,26,08,58,11.40
2011,05,26,08,59,11.40
2011,05,26,09,00,11.50
2011,05,26,09,01,11.50
2011,05,26,09,02,11.50
2011,05,26,09,03,11.60
2011,05,26,09,04,11.60
2011,05,26,09,05,11.60
2011,05,26,09,06,11.70
2011,05,26,09,07,11.70
2011,05,26,09,08,11.80
2011,05,26,09,09,11.80
2011,05,26,09,10,11.80
2011,05,26,09,11,11.90
2011,05,26,09,12,11.90
2011,05,26,09,13,11.90
2011,05,26,09,14,12.00
2011,05,26,09,15,12.00
2011,05,26,09,16,12.10
2011,05,26,09,17,12.10
2011,05,26,09,18,12.10
2011,05,26,09,19,12.20
2011,05,26,09,20,12.20
2011,05,26,09,21,12.20
2011,05,26,09,22,12.20
2011,05,26,09,23,12.30
2011,05,26,09,24,12.30
2011,05,26,09,25,12.30
2011,05,26,09,26,12.30
2011,05,26,09,27,12.40
2011,05,26,09,28,12.40
2011,05,26,09,29,12.50
2011,05,26,09,30,12.50
2011,05,26,09,31,12.60
2011,05,26,09,32,12.60
2011,05,26,09,33,12.60
2011,05,26,09,34,12.60
2011,05,26,09,35,12.60
2011,05,26,09,36,12.60
2011,05,26,09,37,12.60
2011,05,26,09,38,12.60
2011,05,26,09,39,12.60
2011,05,26,09,40,12.60
2011,05,26,09,41,12.60
2011,05,26,09,42,12.50
2011,05,26,09,43,12.50
2011,05,26,09,44,12.50
2011,05,26,09,45,12.40
2011,05,26,09,46,12.40
2011,05,26,09,47,12.40
2011,05,26,09,48,12.50
2011,05,26,09,49,12.50
2011,05,26,09,50,12.60
2011,05,26,09,51,12.60
2011,05,26,09,52,12.70
2011,05,26,09,53,12.70
2011,05,26,09,54,12.80
2011,05,26,09,55,12.80
2011,05,26,09,56,12.90
2011,05,26,09,57,12.90
2011,05,26,09,58,13.00
2011,05,26,09,59,13.00
2011,05,26,10,00,13.00
2011,05,26,10,01,13.00
2011,05,26,10,02,12.90
2011,05,26,10,03,12.90
2011,05,26,10,04,12.90
2011,05,26,10,05,13.00
2011,05,26,10,06,13.00
2011,05,26,10,07,13.10
2011,05,26,10,08,13.20
2011,05,26,10,09,13.20
2011,05,26,10,10,13.30
2011,05,26,10,11,13.30
2011,05,26,10,12,13.40
2011,05,26,10,13,13.50
2011,05,26,10,14,13.50
2011,05,26,10,15,13.60
2011,05,26,10,16,13.70
2011,05,26,10,17,13.70
2011,05,26,10,18,13.70
2011,05,26,10,19,13.60
2011,05,26,10,20,13.60
2011,05,26,10,21,13.60
2011,05,26,10,22,13.60
2011,05,26,10,23,13.60
2011,05,26,10,24,13.60
2011,05,26,10,25,13.60
2011,05,26,10,26,13.60
2011,05,26,10,27,13.60
2011,05,26,10,28,13.70
2011,05,26,10,29,13.70
2011,05,26,10,30,13.70
2011,05,26,10,31,13.70
2011,05,26,10,32,13.70
2011,05,26,10,33,13.70
2011,05,26,10,34,13.70
2011,05,26,10,35,13.70
2011,05,26,10,36,13.70
2011,05,26,10,37,13.70
2011,05,26,10,38,13.70
2011,05,26,10,39,13.70
2011,05,26,10,40,13.70
2011,05,26,10,41,13.60
2011,05,26,10,42,13.50
2011,05,26,10,43,13.50
2011,05,26,10,44,13.40
2011,05,26,10,45,13.40
2011,05,26,10,46,13.30
2011,05,26,10,47,13.30
2011,05,26,10,48,13.30
2011,05,26,10,49,13.30
2011,05,26,10,50,13.20
2011,05,26,10,51,13.20
2011,05,26,10,52,13.20
2011,05,26,10,53,13.20
2011,05,26,10,54,13.20
2011,05,26,10,55,13.20
2011,05,26,10,56,13.20
2011,05,26,10,57,13.20
2011,05,26,10,58,13.20
2011,05,26,10,59,13.10
2011,05,26,11,00,13.10
2011,05,26,11,01,13.10
2011,05,26,11,02,13.10
2011,05,26,11,03,13.00
2011,05,26,11,04,12.90
2011,05,26,11,05,12.90
2011,05,26,11,06,12.90
2011,05,26,11,07,13.00
2011,05,26,11,08,13.00
2011,05,26,11,09,13.10
2011,05,26,11,10,13.10
2011,05,26,11,11,13.10
2011,05,26,11,12,13.10
2011,05,26,11,13,13.10
2011,05,26,11,14,13.10
2011,05,26,11,15,13.10
2011,05,26,11,16,13.10
2011,05,26,11,17,13.10
2011,05,26,11,18,13.10
2011,05,26,11,19,13.20
2011,05,26,11,20,13.20
2011,05,26,11,21,13.20
2011,05,26,11,22,13.20
2011,05,26,11,23,13.20
2011,05,26,11,24,13.30
2011,05,26,11,25,13.40
2011,05,26,11,26,13.40
2011,05,26,11,27,13.40
2011,05,26,11,28,13.50
2011,05,26,11,29,13.60
2011,05,26,11,30,13.60
2011,05,26,11,31,13.60
2011,05,26,11,32,13.50
2011,05,26,11,33,13.40
2011,05,26,11,34,13.30
2011,05,26,11,35,13.30
2011,05,26,11,36,13.20
2011,05,26,11,37,13.20
2011,05,26,11,38,13.10
2011,05,26,11,39,13.10
2011,05,26,11,40,13.10
2011,05,26,11,41,13.20
2011,05,26,11,42,13.20
2011,05,26,11,43,13.30
2011,05,26,11,44,13.30
2011,05,26,11,45,13.30
2011,05,26,11,46,13.20
2011,05,26,11,47,13.10
2011,05,26,11,48,13.00
2011,05,26,11,49,13.00
2011,05,26,11,50,12.90
2011,05,26,11,51,12.80
2011,05,26,11,52,12.80
2011,05,26,11,53,12.80
2011,05,26,11,54,12.90
2011,05,26,11,55,12.90
2011,05,26,11,56,12.90
2011,05,26,11,57,12.90
2011,05,26,11,58,12.90
2011,05,26,11,59,12.90
2011,05,26,12,00,12.90
2011,05,26,12,01,13.00
2011,05,26,12,02,13.00
2011,05,26,12,03,13.00
2011,05,26,12,04,13.10
2011,05,26,12,05,13.10
2011,05,26,12,06,13.10
2011,05,26,12,07,13.20
2011,05,26,12,08,13.20
2011,05,26,12,09,13.20
2011,05,26,12,10,13.20
2011,05,26,12,11,13.20
2011,05,26,12,12,13.20
2011,05,26,12,13,13.30
2011,05,26,12,14,13.30
2011,05,26,12,15,13.30
2011,05,26,12,16,13.30
2011,05,26,12,17,13.30
2011,05,26,12,18,13.30
2011,05,26,12,19,13.30
2011,05,26,12,20,13.30
2011,05,26,12,21,13.30
2011,05,26,12,22,13.30
2011,05,26,12,23,13.40
2011,05,26,12,24,13.40
2011,05,26,12,25,13.40
2011,05,26,12,26,13.40
2011,05,26,12,27,13.40
2011,05,26,12,28,13.40
2011,05,26,12,29,13.40
2011,05,26,12,30,13.40
2011,05,26,12,31,13.40
2011,05,26,12,32,13.50
2011,05,26,12,33,13.50
2011,05,26,12,34,13.50
2011,05,26,12,35,13.60
2011,05,26,12,36,13.60
2011,05,26,12,37,13.60
2011,05,26,12,38,13.60
2011,05,26,12,39,13.60
2011,05,26,12,40,13.70
2011,05,26,12,41,13.70
2011,05,26,12,42,13.80
2011,05,26,12,43,13.90
2011,05,26,12,44,14.00
2011,05,26,12,45,14.10
2011,05,26,12,46,14.10
2011,05,26,12,47,14.10
2011,05,26,12,48,14.10
2011,05,26,12,49,14.10
2011,05,26,12,50,14.10
2011,05,26,12,51,14.10
2011,05,26,12,52,14.10
2011,05,26,12,53,14.20
2011,05,26,12,54,14.10
2011,05,26,12,55,14.10
2011,05,26,12,56,14.10
2011,05,26,12,57,14.10
2011,05,26,12,58,14.20
2011,05,26,12,59,14.20
2011,05,26,13,00,14.20
2011,05,26,13,01,14.20
2011,05,26,13,02,14.30
2011,05,26,13,03,14.30
2011,05,26,13,04,14.30
2011,05,26,13,05,14.40
2011,05,26,13,06,14.40
2011,05,26,13,07,14.50
2011,05,26,13,08,14.60
2011,05,26,13,09,14.60
2011,05,26,13,10,14.70
2011,05,26,13,11,14.80
2011,05,26,13,12,14.80
2011,05,26,13,13,14.90
2011,05,26,13,14,14.90
2011,05,26,13,15,14.90
2011,05,26,13,16,14.90
2011,05,26,13,17,14.90
2011,05,26,13,18,14.90
2011,05,26,13,19,14.80
2011,05,26,13,20,14.80
2011,05,26,13,21,14.80
2011,05,26,13,22,14.80
2011,05,26,13,23,14.70
2011,05,26,13,24,14.70
2011,05,26,13,25,14.70
2011,05,26,13,26,14.70
2011,05,26,13,27,14.60
2011,05,26,13,28,14.60
2011,05,26,13,29,14.60
2011,05,26,13,30,14.60
2011,05,26,13,31,14.70
2011,05,26,13,32,14.70
2011,05,26,13,33,14.70
2011,05,26,13,34,14.60
2011,05,26,13,35,14.50
2011,05,26,13,36,14.40
2011,05,26,13,37,14.30
2011,05,26,13,38,14.30
2011,05,26,13,39,14.30
2011,05,26,13,40,14.30
2011,05,26,13,41,14.30
2011,05,26,13,42,14.20
2011,05,26,13,43,14.20
2011,05,26,13,44,14.30
2011,05,26,13,45,14.30
2011,05,26,13,46,14.40
2011,05,26,13,47,14.50
2011,05,26,13,48,14.60
2011,05,26,13,49,14.70
2011,05,26,13,50,14.80
2011,05,26,13,51,14.90
2011,05,26,13,52,15.00
2011,05,26,13,53,15.10
2011,05,26,13,54,15.20
2011,05,26,13,55,15.30
2011,05,26,13,56,15.40
2011,05,26,13,57,15.40
2011,05,26,13,58,15.40
2011,05,26,13,59,15.40
2011,05,26,14,00,15.40
2011,05,26,14,01,15.40
2011,05,26,14,02,15.30
2011,05,26,14,03,15.30
2011,05,26,14,04,15.30
2011,05,26,14,05,15.30
2011,05,26,14,06,15.30
2011,05,26,14,07,15.40
2011,05,26,14,08,15.30
2011,05,26,14,09,15.30
2011,05,26,14,10,15.30
2011,05,26,14,11,15.20
2011,05,26,14,12,15.10
2011,05,26,14,13,15.00
2011,05,26,14,14,14.90
2011,05,26,14,15,14.90
2011,05,26,14,16,14.80
2011,05,26,14,17,14.80
2011,05,26,14,18,14.80
2011,05,26,14,19,14.70
2011,05,26,14,20,14.70
2011,05,26,14,21,14.50
2011,05,26,14,22,14.40
2011,05,26,14,23,14.30
2011,05,26,14,24,14.20
2011,05,26,14,25,14.10
2011,05,26,14,26,14.10
2011,05,26,14,27,14.00
2011,05,26,14,28,13.90
2011,05,26,14,29,13.90
2011,05,26,14,30,13.80
2011,05,26,14,31,13.80
2011,05,26,14,32,13.70
2011,05,26,14,33,13.70
2011,05,26,14,34,13.70
2011,05,26,14,35,13.60
2011,05,26,14,36,13.60
2011,05,26,14,37,13.50
2011,05,26,14,38,13.50
2011,05,26,14,39,13.40
2011,05,26,14,40,13.30
2011,05,26,14,41,13.30
2011,05,26,14,42,13.30
2011,05,26,14,43,13.30
2011,05,26,14,44,13.20
2011,05,26,14,45,13.20
2011,05,26,14,46,13.20
2011,05,26,14,47,13.20
2011,05,26,14,48,13.20
2011,05,26,14,49,13.20
2011,05,26,14,50,13.20
2011,05,26,14,51,13.20
2011,05,26,14,52,13.30
2011,05,26,14,53,13.20
2011,05,26,14,54,13.20
2011,05,26,14,55,13.20
2011,05,26,14,56,13.10
2011,05,26,14,57,13.10
2011,05,26,14,58,13.20
2011,05,26,14,59,13.20
2011,05,26,15,00,13.20
2011,05,26,15,01,13.20
2011,05,26,15,02,13.20
2011,05,26,15,03,13.10
2011,05,26,15,04,13.10
2011,05,26,15,05,13.10
2011,05,26,15,06,13.10
2011,05,26,15,07,13.10
2011,05,26,15,08,13.10
2011,05,26,15,09,13.10
2011,05,26,15,10,13.10
2011,05,26,15,11,13.10
2011,05,26,15,12,13.10
2011,05,26,15,13,13.20
2011,05,26,15,14,13.20
2011,05,26,15,15,13.20
2011,05,26,15,16,13.20
2011,05,26,15,17,13.20
2011,05,26,15,18,13.20
2011,05,26,15,19,13.20
2011,05,26,15,20,13.20
2011,05,26,15,21,13.20
2011,05,26,15,22,13.20
2011,05,26,15,23,13.20
2011,05,26,15,24,13.20
2011,05,26,15,25,13.30
2011,05,26,15,26,13.30
2011,05,26,15,27,13.30
2011,05,26,15,28,13.40
2011,05,26,15,29,13.50
2011,05,26,15,30,13.50
2011,05,26,15,31,13.60
2011,05,26,15,32,13.70
2011,05,26,15,33,13.70
2011,05,26,15,34,13.70
2011,05,26,15,35,13.70
2011,05,26,15,36,13.70
2011,05,26,15,37,13.70
2011,05,26,15,38,13.80
2011,05,26,15,39,13.80
2011,05,26,15,40,13.80
2011,05,26,15,41,13.90
2011,05,26,15,42,13.90
2011,05,26,15,43,14.00
2011,05,26,15,44,14.10
2011,05,26,15,45,14.20
2011,05,26,15,46,14.30
2011,05,26,15,47,14.30
2011,05,26,15,48,14.30
2011,05,26,15,49,14.30
2011,05,26,15,50,14.20
2011,05,26,15,51,14.10
2011,05,26,15,52,14.10
2011,05,26,15,53,14.10
2011,05,26,15,54,14.10
2011,05,26,15,55,14.10
2011,05,26,15,56,14.20
2011,05,26,15,57,14.30
2011,05,26,15,58,14.40
2011,05,26,15,59,14.50
2011,05,26,16,00,14.50
2011,05,26,16,01,14.60
2011,05,26,16,02,14.70
2011,05,26,16,03,14.80
2011,05,26,16,04,14.80
2011,05,26,16,05,14.80
2011,05,26,16,06,14.80
2011,05,26,16,07,14.80
2011,05,26,16,08,14.70
2011,05,26,16,09,14.70
2011,05,26,16,10,14.70
2011,05,26,16,11,14.60
2011,05,26,16,12,14.60
2011,05,26,16,13,14.60
2011,05,26,16,14,14.60
2011,05,26,16,15,14.60
2011,05,26,16,16,14.60
2011,05,26,16,17,14.60
2011,05,26,16,18,14.60
2011,05,26,16,19,14.60
2011,05,26,16,20,14.50
2011,05,26,16,21,14.40
2011,05,26,16,22,14.30
2011,05,26,16,23,14.10
2011,05,26,16,24,13.90
2011,05,26,16,25,13.70
2011,05,26,16,26,13.60
2011,05,26,16,27,13.40
2011,05,26,16,28,13.20
2011,05,26,16,29,13.00
2011,05,26,16,30,12.80
2011,05,26,16,31,12.70
2011,05,26,16,32,12.60
2011,05,26,16,33,12.50
2011,05,26,16,34,12.40
2011,05,26,16,35,12.20
2011,05,26,16,36,12.10
2011,05,26,16,37,12.00
2011,05,26,16,38,11.90
2011,05,26,16,39,11.80
2011,05,26,16,40,11.70
2011,05,26,16,41,11.60
2011,05,26,16,42,11.50
2011,05,26,16,43,11.50
2011,05,26,16,44,11.40
2011,05,26,16,45,11.30
2011,05,26,16,46,11.20
2011,05,26,16,47,11.10
2011,05,26,16,48,11.10
2011,05,26,16,49,11.10
2011,05,26,16,50,11.00
2011,05,26,16,51,11.00
2011,05,26,16,52,11.00
2011,05,26,16,53,11.00
2011,05,26,16,54,11.10
2011,05,26,16,55,11.10
2011,05,26,16,56,11.20
2011,05,26,16,57,11.20
2011,05,26,16,58,11.20
2011,05,26,16,59,11.20
2011,05,26,17,00,11.20
2011,05,26,17,01,11.20
2011,05,26,17,02,11.30
2011,05,26,17,03,11.30
2011,05,26,17,04,11.30
2011,05,26,17,05,11.40
2011,05,26,17,06,11.40
2011,05,26,17,07,11.40
2011,05,26,17,08,11.40
2011,05,26,17,09,11.40
2011,05,26,17,10,11.40
2011,05,26,17,11,11.40
2011,05,26,17,12,11.40
2011,05,26,17,13,11.40
2011,05,26,17,14,11.40
2011,05,26,17,15,11.50
2011,05,26,17,16,11.60
2011,05,26,17,17,11.60
2011,05,26,17,18,11.60
2011,05,26,17,19,11.60
2011,05,26,17,20,11.50
2011,05,26,17,21,11.50
2011,05,26,17,22,11.40
2011,05,26,17,23,11.40
2011,05,26,17,24,11.40
2011,05,26,17,25,11.40
2011,05,26,17,26,11.40
2011,05,26,17,27,11.40
2011,05,26,17,28,11.40
2011,05,26,17,29,11.40
2011,05,26,17,30,11.40
2011,05,26,17,31,11.50
2011,05,26,17,32,11.50
2011,05,26,17,33,11.60